Time,TemperatureF,DewpointF,PressureIn,WindDirection,WindDirectionDegrees,WindSpeedMPH,WindSpeedGustMPH,Humidity,HourlyPrecipIn,Conditions,Clouds,dailyrainin,SolarRadiationWatts/m^2,SoftwareType,DateUTC
2013-08-22 00:03:00,74.0,71.0,-100.00,South,184,3.0,6.0,90,0.00,,,0.00,0.000000,,2013-08-22 05:03:00,
2013-08-22 00:43:00,73.0,70.0,-100.00,South,189,3.0,5.0,91,0.00,,,0.00,0.000000,,2013-08-22 05:43:00,
2013-08-22 00:53:00,73.0,70.0,-100.00,South,189,3.0,5.0,91,0.00,,,0.00,0.000000,,2013-08-22 05:53:00,
2013-08-22 01:02:00,73.0,70.0,-100.00,South,189,3.0,5.0,91,0.00,,,0.00,0.000000,,2013-08-22 06:02:00,
2013-08-22 01:12:00,73.0,70.0,-100.00,South,189,3.0,5.0,91,0.00,,,0.00,0.000000,,2013-08-22 06:12:00,
2013-08-22 01:42:00,72.0,68.0,-100.00,SSW,197,3.0,7.0,88,0.00,,,0.00,0.000000,,2013-08-22 06:42:00,
2013-08-22 01:52:00,72.0,68.0,-100.00,SSW,197,3.0,7.0,88,0.00,,,0.00,0.000000,,2013-08-22 06:52:00,
2013-08-22 02:02:00,72.0,68.0,-100.00,SSW,197,3.0,7.0,88,0.00,,,0.00,0.000000,,2013-08-22 07:02:00,
2013-08-22 02:12:00,72.0,68.0,-100.00,SSW,197,3.0,7.0,88,0.00,,,0.00,0.000000,,2013-08-22 07:12:00,
2013-08-22 02:42:00,72.0,68.0,-100.00,SSW,198,3.0,7.0,86,0.00,,,0.00,0.000000,,2013-08-22 07:42:00,
2013-08-22 02:53:00,72.0,68.0,-100.00,SSW,198,3.0,7.0,86,0.00,,,0.00,0.000000,,2013-08-22 07:53:00,
2013-08-22 03:03:00,72.0,68.0,-100.00,SSW,198,3.0,7.0,86,0.00,,,0.00,0.000000,,2013-08-22 08:03:00,
2013-08-22 03:12:00,72.0,68.0,-100.00,SSW,198,3.0,7.0,86,0.00,,,0.00,0.000000,,2013-08-22 08:12:00,
2013-08-22 03:43:00,72.0,67.0,-100.00,SSW,197,3.0,6.0,85,0.00,,,0.00,0.000000,,2013-08-22 08:43:00,
2013-08-22 03:53:00,72.0,67.0,-100.00,SSW,197,3.0,6.0,85,0.00,,,0.00,0.000000,,2013-08-22 08:53:00,
2013-08-22 04:01:00,72.0,67.0,-100.00,SSW,197,3.0,6.0,85,0.00,,,0.00,0.000000,,2013-08-22 09:01:00,
2013-08-22 04:11:00,72.0,67.0,-100.00,SSW,197,3.0,6.0,85,0.00,,,0.00,0.000000,,2013-08-22 09:11:00,
2013-08-22 04:43:00,71.0,67.0,-100.00,South,186,4.0,6.0,86,0.00,,,0.00,0.000000,,2013-08-22 09:43:00,
2013-08-22 04:54:00,71.0,67.0,-100.00,South,186,4.0,6.0,86,0.00,,,0.00,0.000000,,2013-08-22 09:54:00,
2013-08-22 05:03:00,71.0,67.0,-100.00,South,186,4.0,6.0,86,0.00,,,0.00,0.000000,,2013-08-22 10:03:00,
2013-08-22 05:12:00,71.0,67.0,-100.00,South,186,4.0,6.0,86,0.00,,,0.00,0.000000,,2013-08-22 10:12:00,
2013-08-22 05:13:00,69.0,66.0,-100.00,South,173,3.0,6.0,89,0.00,,,0.00,0.000000,,2013-08-22 10:13:00,
2013-08-22 05:42:00,69.0,66.0,-100.00,South,173,3.0,6.0,89,0.00,,,0.00,0.000000,,2013-08-22 10:42:00,
2013-08-22 07:42:00,71.0,66.0,-100.00,SW,218,4.0,7.0,85,0.00,,,0.00,33.000000,,2013-08-22 12:42:00,
2013-08-22 07:52:00,71.0,66.0,-100.00,SW,218,4.0,7.0,85,0.00,,,0.00,33.000000,,2013-08-22 12:52:00,
2013-08-22 08:02:00,71.0,66.0,-100.00,SW,218,4.0,7.0,85,0.00,,,0.00,33.000000,,2013-08-22 13:02:00,
2013-08-22 08:12:00,71.0,66.0,-100.00,SW,218,4.0,7.0,85,0.00,,,0.00,33.000000,,2013-08-22 13:12:00,
2013-08-22 08:42:00,72.0,68.0,-100.00,South,186,4.0,5.0,86,0.00,,,0.00,116.000000,,2013-08-22 13:42:00,
2013-08-22 08:52:00,72.0,68.0,-100.00,South,186,4.0,5.0,86,0.00,,,0.00,116.000000,,2013-08-22 13:52:00,
2013-08-22 09:02:00,72.0,68.0,-100.00,South,186,4.0,5.0,86,0.00,,,0.00,116.000000,,2013-08-22 14:02:00,
2013-08-22 09:11:00,72.0,68.0,-100.00,South,186,4.0,5.0,86,0.00,,,0.00,116.000000,,2013-08-22 14:11:00,
2013-08-22 09:42:00,79.0,70.0,-100.00,SSW,209,4.0,7.0,75,0.00,,,0.00,347.000000,,2013-08-22 14:42:00,
2013-08-22 09:52:00,79.0,70.0,-100.00,SSW,209,4.0,7.0,75,0.00,,,0.00,347.000000,,2013-08-22 14:52:00,
2013-08-22 10:02:00,79.0,70.0,-100.00,SSW,209,4.0,7.0,75,0.00,,,0.00,347.000000,,2013-08-22 15:02:00,
2013-08-22 10:11:00,79.0,70.0,-100.00,SSW,209,4.0,7.0,75,0.00,,,0.00,347.000000,,2013-08-22 15:11:00,
2013-08-22 10:13:00,82.0,70.0,-100.00,SW,215,5.0,9.0,68,0.00,,,0.00,532.000000,,2013-08-22 15:13:00,
2013-08-22 10:43:00,82.0,70.0,-100.00,SW,215,5.0,9.0,68,0.00,,,0.00,532.000000,,2013-08-22 15:43:00,
2013-08-22 10:55:00,82.0,70.0,-100.00,SW,215,5.0,9.0,68,0.00,,,0.00,532.000000,,2013-08-22 15:55:00,
2013-08-22 11:05:00,82.0,70.0,-100.00,SW,215,5.0,9.0,68,0.00,,,0.00,532.000000,,2013-08-22 16:05:00,
2013-08-22 11:43:00,85.0,69.0,-100.00,SW,217,5.0,9.0,59,0.00,,,0.00,725.000000,,2013-08-22 16:43:00,
2013-08-22 11:54:00,85.0,69.0,-100.00,SW,217,5.0,9.0,59,0.00,,,0.00,725.000000,,2013-08-22 16:54:00,
2013-08-22 12:02:00,85.0,69.0,-100.00,SW,217,5.0,9.0,59,0.00,,,0.00,725.000000,,2013-08-22 17:02:00,
2013-08-22 12:12:00,85.0,69.0,-100.00,SW,217,5.0,9.0,59,0.00,,,0.00,725.000000,,2013-08-22 17:12:00,
2013-08-22 12:43:00,87.0,67.0,-100.00,WSW,249,4.0,10.0,52,0.00,,,0.00,824.000000,,2013-08-22 17:43:00,
2013-08-22 12:53:00,87.0,67.0,-100.00,WSW,249,4.0,10.0,52,0.00,,,0.00,824.000000,,2013-08-22 17:53:00,
2013-08-22 13:02:00,87.0,67.0,-100.00,WSW,249,4.0,10.0,52,0.00,,,0.00,824.000000,,2013-08-22 18:02:00,
2013-08-22 13:12:00,87.0,67.0,-100.00,WSW,249,4.0,10.0,52,0.00,,,0.00,824.000000,,2013-08-22 18:12:00,
2013-08-22 13:52:00,89.0,68.0,-100.00,SW,227,4.0,7.0,50,0.00,,,0.00,976.000000,,2013-08-22 18:52:00,
2013-08-22 14:02:00,89.0,68.0,-100.00,SW,227,4.0,7.0,50,0.00,,,0.00,976.000000,,2013-08-22 19:02:00,
2013-08-22 14:11:00,89.0,68.0,-100.00,SW,227,4.0,7.0,50,0.00,,,0.00,976.000000,,2013-08-22 19:11:00,
2013-08-22 14:42:00,90.0,68.0,-100.00,North,349,3.0,8.0,48,0.00,,,0.00,820.000000,,2013-08-22 19:42:00,
2013-08-22 14:53:00,90.0,68.0,-100.00,North,349,3.0,8.0,48,0.00,,,0.00,820.000000,,2013-08-22 19:53:00,
2013-08-22 15:02:00,90.0,68.0,-100.00,North,349,3.0,8.0,48,0.00,,,0.00,820.000000,,2013-08-22 20:02:00,
2013-08-22 15:12:00,90.0,68.0,-100.00,North,349,3.0,8.0,48,0.00,,,0.00,820.000000,,2013-08-22 20:12:00,
2013-08-22 15:13:00,90.0,67.0,-100.00,ENE,58,2.0,7.0,47,0.00,,,0.00,686.000000,,2013-08-22 20:13:00,
2013-08-22 15:42:00,90.0,67.0,-100.00,ENE,58,2.0,7.0,47,0.00,,,0.00,686.000000,,2013-08-22 20:42:00,
2013-08-22 15:52:00,90.0,67.0,-100.00,ENE,58,2.0,7.0,47,0.00,,,0.00,686.000000,,2013-08-22 20:52:00,
2013-08-22 16:02:00,90.0,67.0,-100.00,ENE,58,2.0,7.0,47,0.00,,,0.00,686.000000,,2013-08-22 21:02:00,
2013-08-22 16:13:00,90.0,68.0,-100.00,ESE,105,3.0,5.0,49,0.00,,,0.00,561.000000,,2013-08-22 21:13:00,
2013-08-22 16:44:00,90.0,68.0,-100.00,ESE,105,3.0,5.0,49,0.00,,,0.00,561.000000,,2013-08-22 21:44:00,
2013-08-22 16:54:00,90.0,68.0,-100.00,ESE,105,3.0,5.0,49,0.00,,,0.00,561.000000,,2013-08-22 21:54:00,
2013-08-22 17:05:00,90.0,68.0,-100.00,ESE,105,3.0,5.0,49,0.00,,,0.00,561.000000,,2013-08-22 22:05:00,
2013-08-22 17:42:00,90.0,67.0,-100.00,ESE,112,2.0,5.0,47,0.00,,,0.00,528.000000,,2013-08-22 22:42:00,
2013-08-22 17:53:00,90.0,67.0,-100.00,ESE,112,2.0,5.0,47,0.00,,,0.00,528.000000,,2013-08-22 22:53:00,
2013-08-22 18:03:00,90.0,67.0,-100.00,ESE,112,2.0,5.0,47,0.00,,,0.00,528.000000,,2013-08-22 23:03:00,
2013-08-22 18:11:00,90.0,67.0,-100.00,ESE,112,2.0,5.0,47,0.00,,,0.00,528.000000,,2013-08-22 23:11:00,
2013-08-22 18:42:00,86.0,66.0,-100.00,South,179,2.0,4.0,52,0.00,,,0.00,226.000000,,2013-08-22 23:42:00,
2013-08-22 18:53:00,86.0,66.0,-100.00,South,179,2.0,4.0,52,0.00,,,0.00,226.000000,,2013-08-22 23:53:00,
2013-08-22 19:02:00,86.0,66.0,-100.00,South,179,2.0,4.0,52,0.00,,,0.00,226.000000,,2013-08-23 00:02:00,
2013-08-22 19:12:00,86.0,66.0,-100.00,South,179,2.0,4.0,52,0.00,,,0.00,226.000000,,2013-08-23 00:12:00,
2013-08-22 19:42:00,84.0,68.0,-100.00,SSE,152,1.0,4.0,58,0.00,,,0.00,157.000000,,2013-08-23 00:42:00,
2013-08-22 19:52:00,84.0,68.0,-100.00,SSE,152,1.0,4.0,58,0.00,,,0.00,157.000000,,2013-08-23 00:52:00,
2013-08-22 20:02:00,84.0,68.0,-100.00,SSE,152,1.0,4.0,58,0.00,,,0.00,157.000000,,2013-08-23 01:02:00,
2013-08-22 20:11:00,84.0,68.0,-100.00,SSE,152,1.0,4.0,58,0.00,,,0.00,157.000000,,2013-08-23 01:11:00,
2013-08-22 20:42:00,79.0,68.0,-100.00,ESE,120,0.0,1.0,68,0.00,,,0.00,16.000000,,2013-08-23 01:42:00,
2013-08-22 20:52:00,79.0,68.0,-100.00,ESE,120,0.0,1.0,68,0.00,,,0.00,16.000000,,2013-08-23 01:52:00,
2013-08-22 21:02:00,79.0,68.0,-100.00,ESE,120,0.0,1.0,68,0.00,,,0.00,16.000000,,2013-08-23 02:02:00,
2013-08-22 21:11:00,79.0,68.0,-100.00,ESE,120,0.0,1.0,68,0.00,,,0.00,16.000000,,2013-08-23 02:11:00,
2013-08-22 21:43:00,80.0,68.0,-100.00,SE,135,1.0,3.0,66,0.00,,,0.00,0.000000,,2013-08-23 02:43:00,
2013-08-22 21:52:00,80.0,68.0,-100.00,SE,135,1.0,3.0,66,0.00,,,0.00,0.000000,,2013-08-23 02:52:00,
2013-08-22 22:02:00,80.0,68.0,-100.00,SE,135,1.0,3.0,66,0.00,,,0.00,0.000000,,2013-08-23 03:02:00,
2013-08-22 22:12:00,80.0,68.0,-100.00,SE,135,1.0,3.0,66,0.00,,,0.00,0.000000,,2013-08-23 03:12:00,
2013-08-22 22:13:00,78.0,73.0,-100.00,SSE,167,2.0,3.0,84,0.00,,,-99.99,0.000000,,2013-08-23 03:13:00,
2013-08-22 22:44:00,78.0,73.0,-100.00,SSE,167,2.0,3.0,84,0.00,,,-99.99,0.000000,,2013-08-23 03:44:00,
2013-08-22 22:55:00,78.0,73.0,-100.00,SSE,167,2.0,3.0,84,0.00,,,-99.99,0.000000,,2013-08-23 03:55:00,
2013-08-22 23:04:00,78.0,73.0,-100.00,SSE,167,2.0,3.0,84,0.00,,,-99.99,0.000000,,2013-08-23 04:04:00,
2013-08-22 23:13:00,76.0,69.0,-100.00,South,175,2.0,4.0,80,0.00,,,0.00,0.000000,,2013-08-23 04:13:00,
2013-08-22 23:43:00,76.0,69.0,-100.00,South,175,2.0,4.0,80,0.00,,,0.00,0.000000,,2013-08-23 04:43:00,
2013-08-22 23:54:00,76.0,69.0,-100.00,South,175,2.0,4.0,80,0.00,,,0.00,0.000000,,2013-08-23 04:54:00,